User: anonymous   Login
Location: Newark
(42.9260°N, 89.3850°W)
Time: 13:27:52
(UTC+00:00)
Language:

STARLINK-1045 - Orbit

View from above orbital plane
View from above orbital plane
View from above satellite
View from above satellite

Ground track
Ground track

The orbit data is extracted from the following two-line orbital elements,

1 44750C 19074AP  20053.19318123  .00010955  00000-0  75072-3 0   534
2 44750  52.9955  56.4611 0001559  56.0958 320.4713 15.05551867    17
Epoch (UTC): 22 February 2020 04:38:10
Eccentricity: 0.0001559
inclination: 52.9955°
perigee height: 549 km
apogee height: 551 km
right ascension of ascending node: 56.4611°
argument of perigee: 56.0958°
revolutions per day: 15.05551867
mean anomaly at epoch: 320.4713°
orbit number at epoch: 1

The dashed part of the orbit path shows where the satellite is in the earth's shadow,  

DLR